sat.trackr.live / text

‹ back to catalog

SUPERVIEW NEO-2 03

NORAD 62079 · 2024-218B

PAYLOAD ACTIVE UNKNOWN

§ Identity

Operator
Country
PRC
Launch date
2024-11-24
Launch site
JSC
Launch vehicle
Mass (kg)
RCS (m²)

External: N2YO · Heavens-Above · Gunter

§ Orbital elements

Epoch: 2026-05-24T11:30:40.325760Z

Period
94.75 min
Inclination
97.4393°
Eccentricity
0.0001616
Mean motion
15.19720637 rev/d
Perigee alt
505.6 km
Apogee alt
507.8 km
Semi-major
6,884.8 km
B*
1.3078e-5
RAAN
152.1478°
Arg perigee
85.5360°
Mean anomaly
274.6060°
Rev number
8,284

§ Raw data

SUPERVIEW NEO-2 031 62079U 24218B   26144.47963340  .00000212  00000+0  13078-4 0  99912 62079  97.4393 152.1478 0001616  85.5360 274.6060 15.19720637 82848

JSON: /api/v1/satellites/62079 · /tle

For live sub-satellite position, see the globe view (requires WebGL).

§ Visibility from observer

Set your observer location to see the next 7 days of passes ≥ 10°. The values pass through the URL so the page stays shareable.

No JS? Fill the form by hand. The geolocation button needs JavaScript.